Regional Weather Roundup
Issued by NWS

Home | Current Version | Previous Version | Graphics & Text | Print | Product List | Glossary On
Versions: 1 2 3 4 5 6 7 8 9 10 11 12 13 14 15 16 17 18 19 20 21 22 23 24 25 26 27 28 29 30 31 32 33 34 35 36 37 38 39 40 41 42 43 44 45 46 47 48 49 50
000
ASUS43 KMPX 250801
RWRMN
WEATHER ROUNDUP FOR MINNESOTA
NATIONAL WEATHER SERVICE TWIN CITIES/CHANHASSEN MN
300 AM CDT MON SEP 25 2017


NOTE: "FAIR" INDICATES FEW OR NO CLOUDS BELOW 12,000 FEET WITH NO
SIGNIFICANT WEATHER AND/OR OBSTRUCTIONS TO VISIBILITY. N/A MEANS
CURRENT SKY AND/OR WEATHER CONDITIONS ARE NOT AVAILABLE.

MNZ060>063-068>070-250900-
   Twin Cities Metro

CITY           SKY/WX    TMP DP  RH WIND       PRES   REMARKS
TWIN CITIES    RAIN      66  65  96 W9        29.96R FOG
ST PAUL        CLOUDY    68  65  90 W7        29.95R
CRYSTAL        LGT RAIN  63  60  90 W7        29.95R
BLAINE         RAIN      66  64  94 NW3       29.95R
LAKEVILLE      CLOUDY    64  64 100 W6        29.97R
EDEN PRAIRIE   RAIN      64  63  96 CALM      29.96R FOG
SOUTH ST PAUL  CLOUDY    68  65  90 W7        29.95R
LAKE ELMO      LGT RAIN  68  66  94 NW3       29.95S
$$
MNZ001>005-007-008-013>017-022>024-027-028-250900-
   Northwest Minnesota

CITY           SKY/WX    TMP DP  RH WIND       PRES   REMARKS
BEMIDJI        CLOUDY    48  47  98 W8        30.00R
HALLOCK        CLOUDY    48  46  93 N13       30.04R FOG
ROSEAU         CLOUDY    48  45  87 NW6       30.01R
CROOKSTON      CLOUDY    48  48 100 NW13      30.05R
FOSSTON        CLOUDY    46  46 100 NW7       30.03R FOG
DETROIT LAKES  CLOUDY    48  46  93 NW10      30.03S
MOORHEAD       CLOUDY    50  48  93 NW8       30.05S
PARK RAPIDS    MOCLDY    49  46  90 NW8       30.00S
MAHNOMEN       CLOUDY    48  47  98 NW8       30.02S FOG
$$
MNZ006-009>011-018-025>026-250900-
   North Central Minnesota

CITY           SKY/WX    TMP DP  RH WIND       PRES   REMARKS
BAUDETTE       CLOUDY    49  49 100 NW9       29.97R
FLAG ISLAND    CLOUDY    48  48 100 NW15      29.96R
INTL FALLS     CLOUDY    52  50  93 W9G20     29.94R
WASKISH        MOCLDY    50  48  93 NW10      29.98S
BIG FORK       LGT RAIN  52  50  93 CALM      29.97R
LONGVILLE      CLOUDY    54  50  87 W5        29.97S FOG
GRAND RAPIDS   LGT RAIN  53  52  96 NW10      29.98R FOG
CRANE LAKE     MOCLDY    54  54 100 CALM      29.93R
ORR            CLOUDY    54  52  94 W6        29.92R FOG
WALKER         CLOUDY    48  47  96 NW6       29.99S
$$
MNZ012-019>021-037-250900-
   Northeast Minnesota

CITY           SKY/WX    TMP DP  RH WIND       PRES   REMARKS
DULUTH         CLOUDY    63  62  97 NW13      29.92R
ELY            CLOUDY    61  59  94 W6        29.91R
HIBBING        CLOUDY    55  54  96 NW8       29.94R
EVELETH        CLOUDY    58  57  97 W9        29.95R
DULUTH HARBOR  CLOUDY    66  64  94 SW8       29.90R
SILVER BAY     CLOUDY    64  64 100 CALM      29.87S FOG
GRAND MARAIS     N/A     62  62 100 W5        29.85S
$$
MNZ029>031-032-039>041-046>048-054>057-064-250900-
   West Central Minnesota

CITY           SKY/WX    TMP DP  RH WIND       PRES   REMARKS
FERGUS FALLS   CLOUDY    50  50 100 N6        30.04S
WHEATON        CLOUDY    50  46  87 NW8       30.06S
MORRIS         CLOUDY    52  48  87 N8        30.02S
ALEXANDRIA     CLOUDY    51  50  96 NW9       30.02R
ELBOW LAKE     CLOUDY    50  49  97 N10       30.03S
WADENA         CLOUDY    48  48 100 NW5       30.01R
GLENWOOD       CLOUDY    52  48  87 N9        30.01F
APPLETON       CLOUDY    54  48  82 N10G17    30.03R
BENSON         CLOUDY    52  48  87 N13       30.03F
ORTONVILLE     CLOUDY    52  48  87 N12       30.04S
MADISON        DRIZZLE   55  55 100 N8        30.04R
WILLMAR        CLOUDY    55  54  94 NW13      30.01S
$$
MNZ033>034-036-042>043-049>051-058-059-250900-
   Central Minnesota

CITY           SKY/WX    TMP DP  RH WIND       PRES   REMARKS
ST CLOUD       LGT RAIN  56  55  97 NW12      29.96F
SAUK CENTRE    PTSUNNY   52  49  90 NW8       30.00S
PAYNESVILLE    CLOUDY    55  53  94 NW7       29.99S
AITKIN         CLOUDY    55  54  94 NW5       29.96S
PINE RIVER     PTCLDY    50  46  87 NW5       30.02R
BRAINERD       CLOUDY    54  51  90 NW8       29.98S
STAPLES        MOCLDY    50  48  93 NW9       30.00R
LITTLE FALLS   CLOUDY    52  46  82 NW7       29.98F
LITCHFIELD     CLOUDY    55  55 100 NW8       29.98F
BUFFALO        RAIN      58  56  91 NW3       29.98R
MAPLE LAKE     RAIN      58  57  96 NW6       29.97S
HUTCHINSON     CLOUDY    57  56  96 W6        30.01R
$$
MNZ037-044-045-052-053-250900-
   East Central Minnesota

CITY           SKY/WX    TMP DP  RH WIND       PRES   REMARKS
PRINCETON      DRIZZLE   61  57  88 W6        29.96R
MORA           LGT RAIN  57  55  94 NW9       29.97S
RUSH CITY      CLOUDY    63  60  92 W6        29.94S
MOOSE LAKE     DRIZZLE   61  57  88 CALM      29.93R
HINCKLEY       LGT RAIN  63  61  94 W6        29.94S
CLOQUET        CLOUDY    63  59  88 W8        29.93S
MCGREGOR       CLOUDY    55  54  94 NW6       29.97R
$$
MNZ071>073-080-081-089-090-097-098-250900-
   Southwest Minnesota

CITY           SKY/WX    TMP DP  RH WIND       PRES   REMARKS
MONTEVIDEO     CLOUDY    54  52  94 N10G16    30.02F
GRANITE FALLS  RAIN      55  52  91 NW9       30.03S
CANBY          LGT RAIN  53  51  92 NW10      30.03F
MARSHALL       LGT RAIN  53  51  93 NW13      30.02R
REDWOOD FALLS  CLOUDY    55  52  89 NW7       30.01R
OLIVIA         CLOUDY    54  52  94 NW8       30.00R
PIPESTONE      LGT RAIN  54  52  94 NE8       30.02R
WORTHINGTON    RAIN      55  53  93 N9        30.02R
JACKSON        RAIN      55  54  94 N8        29.98F
TRACY          TSTM      54  54 100 NW7       30.04R
SLAYTON        CLOUDY    53  44  73 NW10      30.04R
$$
MNZ065>067-074>077-082>085-091>093-250900-
   South Central Minnesota

CITY           SKY/WX    TMP DP  RH WIND       PRES   REMARKS
MANKATO        LGT RAIN  63  61  94 NE7       29.95F
NEW ULM        HVY RAIN  55  55 100 NW9       29.99R
ST JAMES       CLOUDY    57  55  94 NW8       29.98F
FAIRMONT       CLOUDY    60  59  96 NW9       29.97R
FARIBAULT      LGT RAIN  64  63  94 W6        29.97S
OWATONNA       CLOUDY    64  63  94 NW9       29.97R
WASECA         CLOUDY    63  61  94 N5        29.97F
ALBERT LEA     MOCLDY    70  68  94 N6        29.95F
$$
MNZ078>079-086>088-094>096-250900-
   Southeast Minnesota

CITY           SKY/WX    TMP DP  RH WIND       PRES   REMARKS
ROCHESTER      PTCLDY    65  62  90 W5        29.96S
RED WING       CLOUDY    72  64  78 W3        29.93R
STANTON        LGT RAIN  68  66  92 W6        29.95R
DODGE CENTER   CLOUDY    68  64  88 NW5       29.96S
WINONA         CLEAR     70  63  78 CALM      29.93S
AUSTIN         CLOUDY    66  63  88 CALM      29.95S
PRESTON        CLEAR     65  60  84 S5        29.96S
$$
ABBREVIATIONS USED IN REMARKS
   TC - TEMPERATURES IN CELSIUS
  WCI - WIND CHILL INDEX
   HX - HEAT INDEX
  VSB - VISIBILITY
$$




USA.gov is the U.S. government's official web portal to all federal, state and local government web resources and services.